TimeEDT,TemperatureF,Dew PointF,Humidity,Sea Level PressureIn,VisibilityMPH,Wind Direction,Wind SpeedMPH,Gust SpeedMPH,PrecipitationIn,Events,Conditions,WindDirDegrees,DateUTC
12:53 AM,64.9,57.0,75,29.94,10.0,NNW,5.8,-,N/A,,Partly Cloudy,340,2013-06-14 04:53:00
1:53 AM,63.0,57.9,84,29.94,10.0,NNW,4.6,-,N/A,,Clear,330,2013-06-14 05:53:00
2:53 AM,61.0,57.0,87,29.95,10.0,NW,5.8,-,N/A,,Clear,320,2013-06-14 06:53:00
3:53 AM,60.1,57.0,90,29.94,10.0,North,5.8,-,N/A,,Clear,350,2013-06-14 07:53:00
4:53 AM,61.0,57.0,87,29.96,10.0,NNW,8.1,-,N/A,,Clear,340,2013-06-14 08:53:00
5:53 AM,60.1,55.9,86,29.98,10.0,North,6.9,-,N/A,,Clear,350,2013-06-14 09:53:00
6:53 AM,61.0,55.9,83,30.00,10.0,North,6.9,-,N/A,,Clear,360,2013-06-14 10:53:00
7:53 AM,63.0,55.9,78,30.03,10.0,North,6.9,-,N/A,,Clear,360,2013-06-14 11:53:00
8:53 AM,66.0,57.0,73,30.05,10.0,North,8.1,-,N/A,,Clear,10,2013-06-14 12:53:00
9:53 AM,69.1,57.0,65,30.06,10.0,North,10.4,-,N/A,,Clear,10,2013-06-14 13:53:00
10:53 AM,70.0,55.9,61,30.09,10.0,NNW,8.1,-,N/A,,Clear,340,2013-06-14 14:53:00
11:53 AM,72.0,55.9,57,30.08,10.0,North,8.1,-,N/A,,Clear,10,2013-06-14 15:53:00
12:53 PM,73.0,55.0,53,30.08,10.0,NE,9.2,-,N/A,,Clear,40,2013-06-14 16:53:00
1:53 PM,75.9,57.0,52,30.06,10.0,NE,6.9,-,N/A,,Partly Cloudy,40,2013-06-14 17:53:00
2:53 PM,75.9,57.0,52,30.05,10.0,NNE,5.8,-,N/A,,Clear,30,2013-06-14 18:53:00
3:53 PM,77.0,55.9,48,30.04,10.0,Variable,4.6,-,N/A,,Partly Cloudy,0,2013-06-14 19:53:00
4:53 PM,78.1,55.9,46,30.05,10.0,NNW,3.5,-,N/A,,Mostly Cloudy,330,2013-06-14 20:53:00
5:53 PM,78.1,55.0,45,30.04,10.0,NNE,4.6,-,N/A,,Partly Cloudy,20,2013-06-14 21:53:00
6:53 PM,77.0,52.0,42,30.03,10.0,NE,4.6,-,N/A,,Partly Cloudy,40,2013-06-14 22:53:00
7:53 PM,75.9,54.0,46,30.03,10.0,East,3.5,-,N/A,,Clear,80,2013-06-14 23:53:00
8:53 PM,71.1,55.9,59,30.04,10.0,Calm,Calm,-,N/A,,Clear,0,2013-06-15 00:53:00
9:53 PM,66.9,57.0,70,30.05,10.0,Calm,Calm,-,N/A,,Partly Cloudy,0,2013-06-15 01:53:00
10:53 PM,64.0,57.0,78,30.06,10.0,Calm,Calm,-,N/A,,Clear,0,2013-06-15 02:53:00
11:53 PM,62.1,57.0,84,30.05,10.0,Calm,Calm,-,N/A,,Clear,0,2013-06-15 03:53:00